User: anonymous   Login
Location: Unspecified
(0.0000°N, 0.0000°E)
Time: 01:28:19
(UTC+00:00)
Language:

Vanguard 1 Rocket - Orbit

View from above orbital plane
View from above orbital plane
View from above satellite
View from above satellite

Ground track
Ground track

The orbit data is extracted from the following two-line orbital elements,

1    16U 58002A   19144.29008194 -.00000006 +00000-0 +15915-4 0  9996
2    16 034.2589 201.2530 2025785 032.6289 338.4643 10.48746920417871
Epoch (UTC): 24 May 2019 06:57:43
Eccentricity: 0.2025785
inclination: 34.2589°
perigee height: 652 km
apogee height: 4224 km
right ascension of ascending node: 201.2530°
argument of perigee: 32.6289°
revolutions per day: 10.48746920
mean anomaly at epoch: 338.4643°
orbit number at epoch: 41787

The dashed part of the orbit path shows where the satellite is in the earth's shadow,  

DLR